Pompano Beach, FL

7:18 AM EST on December 11, 2017 (GMT -0500)
Pompano Beach

Weather History for KPMP - May, 2014

Change the Weather History Date:

Tuesday, May 6, 2014

  Actual Average Record
Temperature  
Mean Temperature 78 °F -  
Max Temperature 84 °F 85 °F 91 °F (1951)
Min Temperature 71 °F 69 °F 56 °F (1963)
Cooling Degree Days 12    
Growing Degree Days 28 (Base 50)    
Moisture  
Dew Point 65 °F    
Average Humidity 62    
Maximum Humidity 79    
Minimum Humidity 52    
Precipitation  
Precipitation 0.00 in - - ()
Sea Level Pressure  
Sea Level Pressure 30.03 in    
Wind  
Wind Speed 7 mph (East)    
Max Wind Speed 14 mph    
Max Gust Speed -    
Visibility 10 miles    
Events      
Averages and records for this station are not official NWS values.
T = Trace of Precipitation, MM = Missing Value Source: NWS Daily Summary

Daily Weather History Graph

Daily Weather History Graph

Search for Another Location

Airport or City:

Trip Planner

Search our weather history database for the weather conditions in past years. The results will help you decide how hot, cold, wet, or windy it might be!

Date:

Astronomy

May. 06, 2014 Rise Set
Actual Time 6:39 AM EDT 7:55 PM EDT
Civil Twilight 6:14 AM EDT 8:19 PM EDT
Nautical Twilight 5:45 AM EDT 8:48 PM EDT
Astronomical Twilight 5:15 AM EDT 9:19 PM EDT
Moon 12:47 PM EDT (5/6) 1:18 AM EDT (5/6)
Length of Visible Light 14h 04m
Length of Day
13h 15m
Waxing Crescent, 46% of the Moon is Illuminated
May 6
Waxing Crescent
May 6
First Quarter
May 14
Full
May 21
Last Quarter
May 28
New

Hourly Weather History & Observations

Time (EDT) Temp. Heat Index Dew Point Humidity Pressure Visibility Wind Dir Wind Speed Gust Speed Precip Events Conditions
12:53 AM 75.9 °F - 63.0 °F 64% 30.03 in 10.0 mi East 5.8 mph - N/A   Clear
1:53 AM 75.9 °F - 63.0 °F 64% 30.01 in 10.0 mi ESE 6.9 mph - N/A   Clear
2:53 AM 75.9 °F - 62.1 °F 62% 30.00 in 10.0 mi SE 5.8 mph - N/A   Clear
3:53 AM 71.1 °F - 62.1 °F 73% 29.99 in 10.0 mi Calm Calm - N/A   Clear
7:53 AM 73.0 °F - 66.0 °F 79% 30.03 in 10.0 mi Calm Calm - N/A   Clear
8:53 AM 79.0 °F - 64.0 °F 60% 30.05 in 10.0 mi Calm Calm - N/A   Clear
10:53 AM 82.0 °F 83.1 °F 63.0 °F 52% 30.06 in 10.0 mi ENE 8.1 mph - N/A   Clear
11:53 AM 82.0 °F 83.1 °F 63.0 °F 52% 30.06 in 10.0 mi Variable 5.8 mph - N/A   Clear
12:53 PM 82.9 °F 84.6 °F 64.9 °F 54% 30.05 in 10.0 mi East 10.4 mph - N/A   Clear
1:53 PM 82.9 °F 84.6 °F 64.9 °F 54% 30.04 in 10.0 mi ENE 10.4 mph - N/A   Clear
2:53 PM 84.0 °F 85.8 °F 64.9 °F 53% 30.02 in 10.0 mi East 10.4 mph - N/A   Clear
3:53 PM 82.9 °F 84.6 °F 64.9 °F 54% 30.01 in 10.0 mi East 10.4 mph - N/A   Clear
4:53 PM 82.0 °F 84.1 °F 66.0 °F 58% 30.00 in 10.0 mi East 11.5 mph - N/A   Clear
5:53 PM 82.0 °F 84.1 °F 66.0 °F 58% 30.00 in 10.0 mi East 11.5 mph - N/A   Clear
6:53 PM 80.1 °F 82.3 °F 66.9 °F 64% 30.00 in 10.0 mi East 11.5 mph - N/A   Clear
7:53 PM 79.0 °F - 68.0 °F 69% 30.01 in 10.0 mi East 9.2 mph - N/A   Scattered Clouds
8:53 PM 79.0 °F - 68.0 °F 69% 30.03 in 10.0 mi East 11.5 mph - N/A   Mostly Cloudy
9:08 PM 79.0 °F - 68.0 °F 69% 30.02 in 10.0 mi East 11.5 mph - N/A   Mostly Cloudy
9:21 PM 79.0 °F - 68.0 °F 69% 30.03 in 10.0 mi East 11.5 mph - N/A   Mostly Cloudy
9:53 PM 79.0 °F - 68.0 °F 69% 30.04 in 10.0 mi East 10.4 mph - N/A   Partly Cloudy
10:53 PM 79.0 °F - 63.0 °F 58% 30.04 in 10.0 mi ESE 13.8 mph - N/A   Clear
11:53 PM 79.0 °F - 66.9 °F 66% 30.04 in 10.0 mi ESE 11.5 mph - N/A   Partly Cloudy